This demonstration page uses our WeatherBlox Daily Observations layout. Learn more.

Left ArrowRight Arrow

Hourly Observations for November 3, 2016

Temp ( °F °C ) Dew Point ( °F °C ) Humidity (%) Winds ( mph kmh ) Pressure ( in mb ) Visibility ( mi km ) Precip ( " mm )
12:53 am 00:53 Clear 59 15 56 13.3 90 90 Calm 30.26 1025 7 11 0.00 0.00
1:53 am 01:53 Clear 58 14.4 55 12.8 90 90 Calm 30.26 1025 9 14 0.00 0.00
2:12 am 02:12 Partly Cloudy 57 14 55 13 94 94 Calm 30.24 1024 7 11 0.00 0.00
2:21 am 02:21 Mostly Cloudy with Mist and Fog 57 13.9 55 12.8 93 93 Calm 30.24 1024 4 6 0.00 0.00
2:33 am 02:33 Partly Cloudy 58 14.4 55 12.8 90 90 Calm 30.24 1024 7 11 0.00 0.00
2:53 am 02:53 Mostly Cloudy 58 14.4 56 13.3 93 93 Calm 30.26 1025 10 16 0.00 0.00
3:53 am 03:53 Cloudy 58 14.4 56 13.3 93 93 Calm 30.25 1024 10 16 0.00 0.00
4:53 am 04:53 Mostly Cloudy 59 15 56 13.3 90 90 Calm 30.25 1024 10 16 0.00 0.00
5:53 am 05:53 Mostly Clear 58 14.4 55 12.8 90 90 Calm 30.24 1024 10 16 0.00 0.00
6:53 am 06:53 Clear 57 13.9 54 12.2 90 90 Calm 30.25 1024 7 11 0.00 0.00
7:53 am 07:53 Mostly Cloudy 56 13.3 53 11.7 90 90 Calm 30.26 1025 10 16 0.00 0.00
8:53 am 08:53 Mostly Sunny 57 13.9 54 12.2 90 90 Calm 30.27 1025 10 16 0.00 0.00
9:53 am 09:53 Sunny 65 18.3 59 15 81 81 Calm 30.26 1025 9 14 0.00 0.00
10:53 am 10:53 Sunny 71 21.7 60 15.6 68 68 SSW 8 13 30.25 1025 10 16 0.00 0.00
11:53 am 11:53 Sunny 76 24.4 61 16.1 60 60 VRB 5 7 30.24 1024 10 16 0.00 0.00
12:53 pm 12:53 Mostly Cloudy 79 26.1 59 15 50 50 VRB 3 6 30.21 1023 10 16 0.00 0.00
1:53 pm 13:53 Partly Cloudy 80 26.7 52 11.1 38 38 WNW 8 13 30.18 1022 10 16 0.00 0.00
2:53 pm 14:53 Mostly Sunny 82 27.8 53 11.7 37 37 WNW 13 20 30.14 1021 10 16 0.00 0.00
3:53 pm 15:53 Partly Cloudy 82 27.8 53 11.7 37 37 NW 7 11 30.12 1020 10 16 0.00 0.00
4:53 pm 16:53 Sunny 82 27.8 53 11.7 37 37 WNW 8 13 30.11 1020 10 16 0.00 0.00
5:53 pm 17:53 Sunny 80 26.7 52 11.1 38 38 NW 6 9 30.12 1020 10 16 0.00 0.00
6:53 pm 18:53 Clear 77 25 52 11.1 42 42 Calm 30.12 1020 10 16 0.00 0.00
7:53 pm 19:53 Clear 70 21.1 56 13.3 61 61 Calm 30.12 1020 10 16 0.00 0.00
8:53 pm 20:53 Clear 66 18.9 55 12.8 68 68 Calm 30.12 1020 10 16 0.00 0.00
9:53 pm 21:53 Clear 66 18.9 56 13.3 70 70 Calm 30.12 1020 10 16 0.00 0.00
10:53 pm 22:53 Clear 65 18.3 55 12.8 70 70 Calm 30.11 1020 10 16 0.00 0.00
11:53 pm 23:53 Clear 67 19.4 55 12.8 66 66 Calm 30.09 1019 10 16 0.00 0.00

Powered by AerisWeather